FW4522 Weather Reports


time (UTC)temp
F
wind
direction
speed
knots
gust
knots
rain 1hr
in
rain 24hr
in
rain mn
in
humidity
%
barometer
mb
20260507164502 60 360 5.2 10.4 0.00 0.00 0.00 59 1013.2
20260507163100 60 360 5.2 9.6 0.00 0.00 0.00 60 1013.2
20260507163000 60 360 5.2 9.6 0.00 0.00 0.00 60 1013.1
20260507161610 61 360 7.0 12.2 0.00 0.00 0.00 57 1013.2
20260507160112 61 360 7.0 12.2 0.00 0.00 0.00 56 1013.1
20260507154558 62 360 6.1 13.9 0.00 0.00 0.00 57 1013.0
20260507153112 61 360 7.0 13.0 0.00 0.00 0.00 56 1012.8
20260507151601 61 360 5.2 13.0 0.00 0.00 0.00 57 1012.9
20260507150107 61 360 6.1 13.9 0.00 0.00 0.00 56 1012.9
20260507144556 62 360 9.6 15.6 0.00 0.00 0.00 56 1012.9
20260507143100 62 360 7.8 13.9 0.00 0.00 0.00 54 1012.6
20260507141556 63 360 7.0 10.4 0.00 0.00 0.00 60 1012.6
20260507140055 63 360 8.7 14.8 0.00 0.00 0.00 56 1012.7
20260507134559 63 360 6.1 12.2 0.00 0.00 0.00 57 1012.6
20260507133054 63 360 9.6 14.8 0.00 0.00 0.00 56 1012.7
20260507131554 64 360 4.3 12.2 0.00 0.00 0.00 53 1012.7
20260507130106 63 360 7.0 14.8 0.00 0.00 0.00 55 1012.8
20260507124615 63 360 6.1 11.3 0.00 0.00 0.00 57 1012.7
20260507123105 64 360 5.2 13.0 0.00 0.00 0.00 52 1012.7
20260507121559 63 360 8.7 13.0 0.00 0.00 0.00 54 1012.7
20260507120052 63 360 10.4 15.6 0.00 0.00 0.00 55 1012.7
20260507114554 62 360 7.8 13.0 0.00 0.00 0.00 56 1012.8
20260507113050 65 360 7.0 15.6 0.00 0.00 0.00 48 1012.6
20260507111550 64 360 7.8 15.6 0.00 0.00 0.00 51 1012.7
20260507110049 63 360 9.6 14.8 0.00 0.00 0.00 56 1012.7
20260507104553 64 360 11.3 15.6 0.00 0.00 0.00 54 1012.7
20260507103046 62 360 7.0 11.3 0.00 0.00 0.00 59 1012.9
20260507101557 62 360 8.7 13.9 0.00 0.00 0.00 57 1012.8
20260507100053 63 360 5.2 12.2 0.00 0.00 0.00 55 1012.8
20260507094540 61 360 7.0 13.0 0.00 0.00 0.00 60 1012.9
20260507093039 61 360 7.0 13.0 0.00 0.00 0.00 64 1012.8
20260507091535 59 360 7.0 13.9 0.00 0.00 0.00 65 1012.7
20260507090033 59 360 5.2 13.0 0.00 0.00 0.00 66 1012.7
20260507084532 59 360 7.0 12.2 0.00 0.00 0.00 66 1012.5
20260507083030 58 360 9.6 14.8 0.00 0.00 0.00 68 1012.4
20260507081525 57 360 7.0 13.0 0.00 0.00 0.00 69 1012.3
20260507080022 57 360 8.7 14.8 0.00 0.00 0.00 70 1012.4
20260507074518 56 360 9.6 14.8 0.00 0.00 0.00 72 1012.2
20260507073014 54 360 10.4 18.2 0.00 0.00 0.00 74 1012.3
20260507071515 54 360 8.7 13.0 0.00 0.00 0.00 74 1012.2
20260507070014 52 360 6.1 13.0 0.00 0.00 0.00 76 1012.1
20260507064515 52 360 8.7 14.8 0.00 0.00 0.00 76 1012.1
20260507063011 53 360 8.7 14.8 0.00 0.00 0.00 75 1012.1
20260507061509 54 360 8.7 13.0 0.00 0.00 0.00 76 1011.9
20260507060015 53 360 8.7 13.0 0.00 0.00 0.00 77 1011.6
20260507054501 51 360 6.1 11.3 0.00 0.00 0.00 79 1011.4
20260507053100 51 360 7.0 10.4 0.00 0.00 0.00 78 1011.2
20260507051602 51 360 7.8 14.8 0.00 0.00 0.00 78 1011.0
20260507050058 50 360 6.1 10.4 0.00 0.00 0.00 79 1011.0
20260507044555 50 360 5.2 8.7 0.00 0.00 0.00 80 1010.8
20260507043053 50 360 4.3 7.0 0.00 0.00 0.00 81 1010.6
20260507041553 50 360 2.6 7.0 0.00 0.00 0.00 81 1010.3
20260507040050 50 360 3.5 7.8 0.00 0.00 0.00 81 1010.2
20260507034549 50 360 4.3 7.0 0.00 0.00 0.00 81 1010.1
20260507033048 50 360 5.2 8.7 0.00 0.00 0.00 80 1010.0
20260507031545 51 360 3.5 9.6 0.00 0.00 0.00 80 1009.9
20260507030044 51 360 4.3 9.6 0.00 0.00 0.00 80 1009.9
20260507024541 51 360 6.1 11.3 0.00 0.00 0.00 80 1009.8
20260507023042 51 360 5.2 9.6 0.00 0.00 0.00 79 1009.7
20260507021540 52 360 4.3 8.7 0.00 0.00 0.00 79 1009.7
20260507020052 51 360 3.5 8.7 0.00 0.00 0.00 80 1009.6
20260507014543 52 360 7.0 12.2 0.00 0.00 0.00 80 1009.4
20260507013034 52 360 6.1 12.2 0.00 0.00 0.00 80 1009.2
20260507011533 52 360 8.7 14.8 0.00 0.00 0.00 80 1009.1
20260507010030 52 360 7.8 11.3 0.00 0.00 0.00 80 1009.1
20260507004534 53 360 7.0 11.3 0.00 0.00 0.00 80 1009.0
20260507003031 53 360 6.1 11.3 0.00 0.00 0.00 80 1008.8
20260507001527 53 360 7.0 12.2 0.00 0.00 0.00 80 1008.8
20260507000027 53 360 7.8 12.2 0.00 0.00 0.00 80 1008.7
20260506234533 54 360 8.7 13.0 0.00 0.00 0.00 80 1009.0
20260506233020 54 360 7.8 13.9 0.00 0.00 0.00 79 1008.6
20260506231530 54 360 9.6 14.8 0.00 0.00 0.00 79 1008.0
20260506230017 54 360 6.1 11.3 0.00 0.00 0.00 79 1008.1
20260506224516 54 360 8.7 12.2 0.00 0.00 0.00 79 1008.1
20260506223014 54 360 7.0 10.4 0.00 0.00 0.00 78 1008.0
20260506221512 54 360 5.2 13.0 0.00 0.00 0.00 78 1007.7
20260506220010 54 360 7.0 13.9 0.00 0.00 0.00 78 1007.5
20260506214510 54 360 6.1 9.6 0.00 0.00 0.00 80 1007.0
20260506213008 55 360 2.6 10.4 0.00 0.00 0.00 79 1006.6
20260506211513 55 360 7.0 12.2 0.00 0.00 0.00 78 1006.5
20260506210008 56 360 7.8 14.8 0.00 0.00 0.00 77 1006.2
20260506204507 56 360 5.2 16.5 0.00 0.00 0.00 77 1006.1
20260506203007 57 360 11.3 19.1 0.00 0.00 0.00 76 1006.4
20260506201506 58 360 11.3 19.1 0.00 0.00 0.00 74 1006.1
20260506200006 59 360 12.2 20.9 0.00 0.00 0.00 71 1006.0
20260506194505 61 360 10.4 18.2 0.00 0.00 0.00 66 1005.7
20260506193005 61 360 0.9 3.5 0.00 0.00 0.00 62 1004.7
20260506191506 61 360 0.9 3.5 0.00 0.00 0.00 60 1004.6
20260506190006 64 360 0.0 5.2 0.00 0.00 0.00 56 1004.1
20260506184505 67 360 1.7 5.2 0.00 0.00 0.00 49 1003.7
20260506183005 68 360 0.9 7.8 0.00 0.00 0.00 48 1003.2
20260506181508 68 360 2.6 7.8 0.00 0.00 0.00 48 1003.0
20260506180010 69 360 0.9 3.5 0.00 0.00 0.00 47 1003.2
20260506174509 70 360 0.9 4.3 0.00 0.00 0.00 46 1003.0
20260506173004 70 360 1.7 7.0 0.00 0.00 0.00 46 1002.9
20260506171503 72 360 2.6 8.7 0.00 0.00 0.00 46 1002.8
20260506170001 72 360 3.5 9.6 0.00 0.00 0.00 44 1002.9